Погода в Каштелу-Бранку

Португалия     39°49′19″N   7°29′15″W
темп.,
°C
ветер,
м/с
пор.,
м/с
влажн.,
%
обл.,
%
осадки,
мм/ч
давл.,
гПа
погр.,
м
12 мая, ср
ср1201:00+12юз41072100 0.0 1021842
04:00+11юз41286100 0.3 1020907
07:00+12зюз4109355 0.7 1019717
10:00+16з59587 0.0 10201492
13:00+18зсз685651 0.1 10201719
16:00+19сз69418 0.0 10201994
19:00+17сз574933 0.0 10201585
22:00+12зсз49708 0.0 1022368
13 мая, чт
чт1301:00+10з25835 0.0 1022137
04:00+9з22913 0.0 102134
07:00+9юз23891 0.0 102178
10:00+16з466047 0.0 10201111
13:00+19зюз585567 0.0 10181438
16:00+18з596699 0.0 10171158
19:00+16з49806 0.1 1017862
22:00+12з24891 0.0 101880
14 мая, пт
пт1401:00+11зюз36916 0.0 1018155
04:00+9зсз119364 0.0 101811
07:00+9зсз119115 0.0 101915
10:00+16с225648 0.0 1020661
13:00+23зсз13328 0.0 10181333
16:00+25зсз4524100 0.0 10171876
19:00+20зсз4741100 0.0 1017537
22:00+14зсз255882 0.0 1019102
15 мая, сб
сб1501:00+12зсз116297 0.0 101912
04:00+11сз116720 0.0 101811
07:00+12зсз016947 0.0 101911
10:00+20ссз124652 0.0 1019467
13:00+28зсз243616 0.0 10171477
16:00+28сз55355 0.0 10161846
19:00+25сз574716 0.0 1016712
22:00+18зсз37725 0.0 1017136
16 мая, вс
вс1601:00+15сз118132 0.0 101716
04:00+14сз11810 0.0 101611
07:00+14зсз11770 0.0 101711
10:00+23сз24430 0.0 1017648
13:00+28зсз562796 0.0 10161790
16:00+26сз6732100 0.0 10151638
19:00+22сз5856100 0.0 1016828
22:00+17зсз5107144 0.0 1018493